You are here:
  • Home »
  • Tender »
  • Open Tender Enquiry

Open Tender Enquiry

5200-5101 5100-5001 5000-4901 4900-4801 4800-4701 4700-4601 4600-4501 4500-4401
4400-4301 4300-4201 4200-4101 4100-4001 4000-3901 3900-3801 3800-3701 3700-3601
3600-3501 3500-3401 3400-3301 3300-3201 3200-3101 3100-3001 3000-2901 2900-2801
2800-2701 2700-2601 2600-2501 2500-2401 2400-2301 2300-2201 2200-2101 2100-2001
2000-1901 1900-1801 1800-1701 1700-1601 1600-1501 1500-1401 1400-1301 1300-1201
1200-1101 1100-1001 1000-901 900-801 800-701 700-601 600-501 500-401
400-301 300-201 200-101 100-1 1300-1251 1250-1201 1200-1151 1150-1101
1100-1051 1050-1001 1000-951 950-901 900-851 850-801 800-751 750-701
700-651 650-601 600-551 550-501 500-451 450-401 400-351 350-301
300-251 250-201 200-151 150-101 100-51 50-01

Sl.No. Enquiry No. Date Due on Short Description
5001 2/ PE180853/8 19/05/2018 19/06/2018 LEVEL TRANSMITTER
5002 2/ PE180390/1 16/05/2018 18/06/2018 DIAPHRAGM FOR DORRCO PUMP
5003 2/ PE180790/8 16/05/2018 18/06/2018 SS316L PIPE BENDS
5004 2/ PE180426/1 19/05/2018 19/06/2018 ELBOW
5005 2/ PE180427/1 19/05/2018 19/06/2018 CHAULKING ROPE
5006 2/ PE180247/7 19/05/2018 19/06/2018 GM GATE VALVE
5007 2/ PE180248/7 19/05/2018 19/06/2018 BRASS BALL VALVE
5008 2/ PE180249/7 19/05/2018 19/06/2018 GM GATE VALVE
5009 1/PE181216/8 30.05.2018 03.07.2018 MMC Card
5010 1/PE181220/8 30.05.2018 03.07.2018 Copper Cable
5011 1/PE181221/8 30.05.2018 03.07.2018 Cylinderical Roller Bearing
5012 1/PE181222/8 30.05.2018 03.07.2018 Starter Tubelight
5013 1/PE181223/8 30.05.2018 03.07.2018 Roller Bearing
5014 1/PE181239/8 30.05.2018 03.07.2018 Welding Machine
5015 1/PE181245/8 30.05.2018 03.07.2018 G.I. Chain Linke
5016 1/PE181247/8 30.05.2018 03.07.2018 Destop Computer
5017 1/PE181258/8 30.05.2018 03.07.2018 Sticker
5018 1/PE181263/8 30.05.2018 03.07.2018 Tube Machine
5019 2/PE180717/1 29/05/2018 28/06/2018 ELECTRONIC CARDS
5020 2/PE180813/8 25/05/2018 28/06/2018 V GROOVE PULLEY
5021 2/PE180871/8 25/05/2018 28/06/2018 POLYTHENE BOTTLE
5022 2/PE180872/8 28/05/2018 28/06/2018 HOSE CLAMP
5023 2/PE180869/8 28/05/2018 28/06/2018 POLYTHENE BOTTLE
5024 2/PE180868/8 28/05/2018 28/06/2018 CAULKING ROPE
5025 2/PE180867/8 28/05/2018 28/06/2018 POLYPROPELENE THREAD
5026 2/PE180870/8 28/05/2018 28/06/2018 REAGENT BOTTLE
5027 2/PE180489/1 25/05/2018 28/06/2018 KETTLE ELEMENT
5028 2/PE180833/8 28/05/2018 28/06/2018 SPRAY NOZZLE
5029 2/PE180481/1 25/05/2018 28/06/2018 PIN AND BUSH COUPLING
5030 2/PE180436/1 25/05/2018 28/06/2018 OFFLINE UPS
5031 1/PE180516/1 31.05.2018 05.07.2018 Purchase Order Form
5032 1/PE180657/1 31.05.2018 05.07.2018 Water Purfier
5033 1/PE180700/1 31.05.2018 05.07.2018 Coir Door Mat
5034 1/PE180701/1 31.05.2018 05.07.2018 Lock Brass
5035 1/PE180702/1 31.05.2018 05.07.2018 Electronic Hooter
5036 1/PE180706/1 31.05.2018 05.07.2018 Capacitor
5037 1/PE180708/1 31.05.2018 05.07.2018 Al. Ladder
5038 1/PE180709/1 31.05.2018 05.07.2018 Welding Rod
5039 1/PE180710/1 31.05.2018 05.07.2018 Water paper
5040 1/PE180711/1 31.05.2018 05.07.2018 Print Head
5041 1/PE180712/1 31.05.2018 05.07.2018 Carbon Brush
5042 3/ PE180584/1 26/05/2018 02/07/2018 Pressure Switch
5043 3/ PE180586/1 26/05/2018 02/07/2018 G.I.Flange
5044 3/ PE180538/1 26/05/2018 02/07/2018 Spares for heavy duty Drill Machine.
5045 3/ PE181132/8 25/05/2018 02/07/2018 ERW pipes
5046 3/ PE181009/8 25/05/2018 02/07/2018 Air Cleaner Assy. Body
5047 3/ PE180613/1 25/05/2018 02/07/2018 MS Ring Flange
5048 3/ PE180214/7 25/05/2018 02/07/2018 Air Control Valve Assy.
5049 3/ PE180311/7 25/05/2018 02/07/2018 Spares for EJC 975/ St 3.5
5050 3/ PE180601/1 25/05/2018 02/07/2018 Water Pump
5051 3/ PE180565/1 26/05/2018 02/07/2018 Service Kit
5052 3/ PE180564/1 26/05/2018 02/07/2018 ERW G.I. Pipe
5053 3/ PE180539/1 26/05/2018 02/07/2018 Armature Assy.
5054 3/ PE180540/1 26/05/2018 02/07/2018 Ring Seal Lower Injector
5055 3/ PE180542/1 26/05/2018 02/07/2018 Service Bearing Kit
5056 3/ PE180527/1 26/05/2018 02/07/2018 Spares for Diamond Drilling Work
5057 3/ PE180528/1 26/05/2018 02/07/2018 Double Tube Core Barrel
5058 3/ PE180558/1 26/05/2018 02/07/2018 Digital Torque Angle meter
5059 3/ PE180557/1 26/05/2018 02/07/2018 Strap
5060 3/ PE180531/1 25/05/2018 02/07/2018 Circuit Breaker
5061 3/ PE180535/1 25/05/2018 02/07/2018 SMF Battery
5062 3/ PE180614/1 25/05/2018 02/07/2018 Battery Automotive
5063 3/ PE180533/1 25/05/2018 02/07/2018 Halogen Light Fitting
5064 3/ PE180587/1 26/05/2018 02/07/2018 Valve gasket
5065 3/ PE180561/1 26/05/2018 02/07/2018 Mechanical Torque Angle Gauge
5066 3/ PE180625/8 25/05/2018 02/07/2018 Spares for Rocket Boomer 281
5067 3/ PE180615/1 25/05/2018 02/07/2018 Nylon Braided PVC Hose
5068 2/ PE180976/8 25/05/2018 09/07/2018 CCTV SYSTEM
5069 2/ PE180437/1 25/05/2018 04/07/2018 RUBBER CONE
5070 2/ PE180468/1 25/05/2018 04/07/2018 SPARE TYRE
5071 2/ PE180400/1 25/05/2018 04/07/2018 SPARE FOR PLC
5072 2/ PE171735/1 25/05/2018 04/07/2018 TYRE COUPLING
5073 2/ PE180406/1 25/05/2018 04/07/2018 HOSE CLAMP
5074 2/ PE180250/7 25/05/2018 04/07/2018 BRASS BALL VALVE
5075 2/ PE180877/8 25/05/2018 04/07/2018 PH TRANSMITTER
5076 2/ PE180909/8 25/05/2018 04/07/2018 LIFE JACKET
5077 2/ PE180750/8 25/05/2018 04/07/2018 RESPIRATOR
5078 2/ PE180409/1 25/05/2018 04/07/2018 LIFE JACKET
5079 2/ PE180928/8 25/05/2018 04/07/2018 RADON BUBBLER
5080 2/ PE180876/8 25/05/2018 04/07/2018 WIDE ANGLE BELT
5081 1- PE180717-1 17.05.2018 26.06.2018 Screw Pumps
5082 1- PE180695-1 10.05.2018 22.06.2018 Bearings Make SKF/FAG
5083 1- PE180714-1 17.05.2018 19.06.2018 Electric belt cutter, clamp,lifter ,Make:Flexco/Almax
5084 1- PE180722-1 18.05.2018 19.06.2018 Magnetic flow meter along with transmitter
5085 1- PE180726-1 19.05.2018 26.06.2018 150 w choke,capacitor 20uf,250 w choke,250 w hpsv lamp
5086 1- PE180727-1 25.05.2018 26.06.2018 Coarse River sand
5087 1- PE180729-1 25.05.2018 26.06.2018 6.6 KV 3 Phase H.T.Panel
5088 1- PE180741-1 30.05.2018 29.06.2018 3-Phase Squirrel Cage I nduction motor
5089 1- PE180742-1- 30.05.2018 29.06.2018 NS type Control fuses,fuse base& carrier(top plug)forcontrol circuit protection
5090 2- PE180718-1 17.05.2018 26.06.2018 Bonfigloli make gear box
5091 2- PE180725-1 19.05.2018 26.06.2018 Heavy Duty PVC suction & Discharge hose pipe
5092 2- PE180732-1 28.05.2018 29.06.2018 MS Flanges
5093 2- PE180743-1 30.05.2018 29.06.2018 Solenoid Valve
5094 2- PE180745-1- 30.05.2018 29.06.2018 Solenoid Valve Coil
5095 3- PE180748-1- 30.05.2018 29.06.2018 TATA Star Bus Spares
5096 2- PE180709-1 Corrigendum-1 05.06.2018 12.06.2018 AMMONIA GAS
5097 1- PE180721-1 corrigendum-1 01.06.2018 12.06.2018 Anionic Flocculant
5098 1/ PE180899/8 06.06.2018 10.07.2018 Almirah
5099 1/ PE181144/8 05.06.2018 10.07.2018 Cable Copper
5100 1/ PE181252/8 05.06.2018 10.07.2018 Xerox Paper